FW7499 Weather Reports


time (UTC)temp
F
wind
direction
speed
knots
gust
knots
rain 1hr
in
rain 24hr
in
rain mn
in
humidity
%
barometer
mb
20220813151015 81 293 2.6 7.8 0.00 0.00 0.00 62 1014.7
20220813150055 80 293 1.7 5.2 0.00 0.00 0.00 65 1014.7
20220813145035 79 225 0.9 3.5 0.00 0.00 0.00 66 1014.9
20220813144015 79 315 1.7 3.5 0.00 0.00 0.00 65 1014.9
20220813143135 79 338 0.9 3.5 0.00 0.00 0.00 69 1015.0
20220813142015 78 0.0 1.7 0.00 0.00 0.00 69 1014.9
20220813141015 76 0.0 1.7 0.00 0.00 0.00 75 1015.0
20220813140115 76 0 0.9 2.6 0.00 0.00 0.00 72 1014.9
20220813135015 76 293 0.9 4.3 0.00 0.00 0.00 71 1014.8
20220813134035 76 248 1.7 6.1 0.00 0.00 0.00 71 1014.3
20220813133015 76 180 1.7 5.2 0.00 0.00 0.00 71 1014.1
20220813132015 76 180 1.7 8.7 0.00 0.00 0.00 71 1014.1
20220813131035 76 158 1.7 4.3 0.00 0.00 0.00 72 1014.3
20220813130015 76 270 0.9 3.5 0.00 0.00 0.00 72 1014.4
20220813125015 75 158 0.9 2.6 0.00 0.00 0.00 73 1014.7
20220813124015 75 0.0 2.6 0.00 0.00 0.00 73 1014.9
20220813123015 75 0.0 2.6 0.00 0.00 0.00 73 1015.0
20220813122135 75 0.0 1.7 0.00 0.00 0.00 73 1015.3
20220813121035 75 0.0 2.6 0.00 0.00 0.00 73 1015.2
20220813120015 75 0.0 3.5 0.00 0.00 0.00 73 1015.2
20220813115015 75 0.0 2.6 0.00 0.00 0.00 73 1015.3
20220813114017 75 0.0 1.7 0.00 0.00 0.00 73 1015.4
20220813113017 75 0.0 2.6 0.00 0.00 0.00 72 1015.4
20220813112017 75 0.0 2.6 0.00 0.00 0.00 72 1015.3
20220813111037 75 180 0.9 2.6 0.00 0.00 0.00 71 1015.4
20220813110017 75 0.0 2.6 0.00 0.00 0.00 72 1015.5
20220813105017 76 180 0.9 2.6 0.00 0.00 0.00 71 1015.4
20220813104057 76 135 0.9 4.3 0.00 0.00 0.00 71 1015.4
20220813103017 76 0.0 1.7 0.00 0.00 0.00 72 1015.4
20220813102017 75 158 0.9 3.5 0.00 0.00 0.00 71 1015.4
20220813101017 75 180 0.9 1.7 0.00 0.00 0.00 72 1015.5
20220813100037 75 158 0.9 4.3 0.00 0.00 0.00 72 1015.5
20220813095017 75 135 0.9 3.5 0.00 0.00 0.00 73 1015.5
20220813094057 75 0.0 1.7 0.00 0.00 0.00 74 1015.5
20220813093017 75 0.0 2.6 0.00 0.00 0.00 73 1015.6
20220813092017 75 158 0.9 3.5 0.00 0.00 0.00 73 1015.7
20220813091037 75 180 0.9 2.6 0.00 0.00 0.00 73 1015.7
20220813090117 75 203 0.9 4.3 0.00 0.00 0.00 73 1015.7
20220813085017 75 180 0.9 2.6 0.00 0.00 0.00 73 1015.7
20220813084117 76 113 0.9 4.3 0.00 0.00 0.00 73 1015.6
20220813083037 76 158 0.9 5.2 0.00 0.00 0.00 73 1015.5
20220813082017 76 180 0.9 4.3 0.00 0.00 0.00 72 1015.5
20220813081117 76 158 1.7 6.1 0.00 0.00 0.00 72 1015.6
20220813080016 76 180 0.9 5.2 0.00 0.00 0.00 71 1015.6
20220813075017 76 135 0.9 6.1 0.00 0.00 0.00 71 1015.6
20220813074017 76 203 0.9 4.3 0.00 0.00 0.00 70 1015.6
20220813073017 76 203 1.7 5.2 0.00 0.00 0.00 70 1015.7
20220813072037 77 203 0.9 4.3 0.00 0.00 0.00 69 1015.6
20220813071017 77 203 1.7 5.2 0.00 0.00 0.00 69 1015.5
20220813070037 77 135 1.7 5.2 0.00 0.00 0.00 68 1015.4
20220813065016 77 180 1.7 6.1 0.00 0.00 0.00 68 1015.2
20220813064036 77 158 1.7 7.0 0.00 0.00 0.00 68 1015.7
20220813063016 77 180 1.7 6.1 0.00 0.00 0.00 67 1015.6
20220813062057 77 180 0.9 5.2 0.00 0.00 0.00 66 1015.3
20220813061016 77 158 1.7 7.8 0.00 0.00 0.00 66 1015.1
20220813060036 77 180 1.7 6.1 0.00 0.00 0.00 65 1015.1
20220813055016 77 180 1.7 6.1 0.00 0.00 0.00 64 1015.2
20220813054036 78 180 1.7 6.1 0.00 0.00 0.00 63 1015.1
20220813053056 78 203 1.7 7.8 0.00 0.00 0.00 62 1015.2
20220813052017 77 180 0.9 8.7 0.00 0.00 0.00 62 1015.1
20220813051137 78 68 0.9 3.5 0.00 0.00 0.00 62 1015.2
20220813050016 78 135 0.9 4.3 0.00 0.00 0.00 60 1015.1
20220813045017 79 203 1.7 6.1 0.00 0.00 0.00 59 1015.0
20220813044057 80 158 1.7 7.0 0.00 0.00 0.00 58 1014.9
20220813043037 79 203 1.7 6.1 0.00 0.00 0.00 58 1014.8
20220813042117 80 203 1.7 5.2 0.00 0.00 0.00 58 1014.5
20220813041017 80 180 1.7 6.1 0.00 0.00 0.00 59 1014.5
20220813040037 80 203 2.6 7.8 0.00 0.00 0.00 59 1014.6
20220813035017 80 203 1.7 7.8 0.00 0.00 0.00 59 1014.6
20220813034017 80 180 2.6 7.0 0.00 0.00 0.00 59 1014.6
20220813033017 80 180 1.7 6.1 0.00 0.00 0.00 60 1014.7
20220813032017 80 180 1.7 7.8 0.00 0.00 0.00 62 1014.6
20220813031157 80 203 2.6 6.1 0.00 0.00 0.00 63 1014.6
20220813030017 80 180 2.6 7.8 0.00 0.00 0.00 64 1014.9
20220813025017 80 180 1.7 7.8 0.00 0.00 0.00 65 1015.0
20220813024057 80 203 0.9 3.5 0.00 0.00 0.00 64 1015.2
20220813023017 81 180 0.9 3.5 0.00 0.00 0.00 63 1015.1
20220813022037 81 180 0.9 5.2 0.00 0.00 0.00 61 1015.1
20220813021037 82 203 0.9 7.0 0.00 0.00 0.00 61 1014.9
20220813020017 82 203 0.9 3.5 0.00 0.00 0.00 61 1015.0
20220813015016 82 203 0.9 5.2 0.00 0.00 0.00 61 1014.9
20220813014037 83 203 1.7 6.1 0.00 0.00 0.00 60 1014.8
20220813013157 83 225 0.9 2.6 0.00 0.00 0.00 60 1014.9
20220813012016 83 158 0.9 4.3 0.00 0.00 0.00 59 1014.9
20220813011057 84 158 0.9 3.5 0.00 0.00 0.00 58 1014.9
20220813010016 85 203 0.9 4.3 0.00 0.00 0.00 56 1015.0
20220813005057 85 180 0.9 5.2 0.00 0.00 0.00 56 1015.1
20220813004056 86 180 0.9 3.5 0.00 0.00 0.00 56 1014.9
20220813003056 86 203 1.7 6.1 0.00 0.00 0.00 55 1014.8
20220813002016 87 203 1.7 6.1 0.00 0.00 0.00 52 1014.7
20220813001016 89 135 0.9 5.2 0.00 0.00 0.00 47 1014.9
20220813000016 90 180 1.7 7.0 0.00 0.00 0.00 37 1014.8
20220812235016 90 203 1.7 9.6 0.00 0.00 0.00 36 1014.8
20220812234117 91 248 2.6 12.2 0.00 0.00 0.00 34 1014.9
20220812233016 92 203 1.7 7.0 0.00 0.00 0.00 36 1015.0
20220812232036 92 203 2.6 11.3 0.00 0.00 0.00 35 1015.0
20220812231056 92 180 2.6 7.8 0.00 0.00 0.00 36 1015.1
20220812230036 92 203 2.6 7.0 0.00 0.00 0.00 36 1015.2
20220812225056 93 135 1.7 9.6 0.00 0.00 0.00 37 1015.4
20220812224016 93 203 2.6 8.7 0.00 0.00 0.00 36 1015.4
20220812223016 93 203 2.6 7.0 0.00 0.00 0.00 36 1015.6
20220812222036 93 225 2.6 8.7 0.00 0.00 0.00 36 1015.6
20220812221016 93 180 2.6 9.6 0.00 0.00 0.00 36 1015.7
20220812220056 93 270 2.6 9.6 0.00 0.00 0.00 38 1015.8
20220812215016 93 180 2.6 10.4 0.00 0.00 0.00 36 1015.9
20220812214156 93 180 2.6 7.8 0.00 0.00 0.00 36 1016.1
20220812213016 94 225 2.6 9.6 0.00 0.00 0.00 37 1016.1
20220812212016 93 225 2.6 8.7 0.00 0.00 0.00 37 1016.2
20220812211056 93 270 2.6 9.6 0.00 0.00 0.00 36 1016.3
20220812210036 94 270 1.7 8.7 0.00 0.00 0.00 37 1016.4
20220812205036 94 293 2.6 9.6 0.00 0.00 0.00 36 1016.5
20220812204116 93 68 1.7 7.8 0.00 0.00 0.00 40 1016.6
20220812203056 93 225 2.6 7.8 0.00 0.00 0.00 38 1016.8
20220812202036 93 203 3.5 8.7 0.00 0.00 0.00 37 1016.8
20220812201036 93 270 2.6 13.0 0.00 0.00 0.00 39 1017.0
20220812200056 93 248 1.7 6.1 0.00 0.00 0.00 38 1017.1
20220812195016 93 293 2.6 6.1 0.00 0.00 0.00 38 1017.2
20220812194036 92 248 2.6 9.6 0.00 0.00 0.00 42 1017.3
20220812193016 91 203 2.6 8.7 0.00 0.00 0.00 41 1017.3
20220812192016 91 203 2.6 8.7 0.00 0.00 0.00 44 1017.5
20220812191016 90 203 2.6 7.0 0.00 0.00 0.00 42 1017.5
20220812190016 90 180 2.6 9.6 0.00 0.00 0.00 45 1017.6
20220812185016 91 158 2.6 7.8 0.00 0.00 0.00 43 1017.7
20220812184016 91 248 1.7 7.0 0.00 0.00 0.00 45 1017.8
20220812183016 90 180 2.6 7.8 0.00 0.00 0.00 46 1017.8
20220812182036 90 270 1.7 7.8 0.00 0.00 0.00 45 1018.0
20220812181036 90 158 1.7 5.2 0.00 0.00 0.00 50 1018.1
20220812180016 89 225 1.7 6.1 0.00 0.00 0.00 50 1018.3
20220812175016 89 270 2.6 7.8 0.00 0.00 0.00 48 1018.4
20220812174016 88 270 2.6 7.0 0.00 0.00 0.00 50 1018.5
20220812173036 88 248 1.7 6.1 0.00 0.00 0.00 52 1018.6
20220812172036 87 158 1.7 5.2 0.00 0.00 0.00 53 1018.6
20220812171036 87 270 1.7 8.7 0.00 0.00 0.00 50 1018.7
20220812170056 86 180 1.7 6.1 0.00 0.00 0.00 58 1018.8
20220812165056 86 315 1.7 6.1 0.00 0.00 0.00 51 1018.9
20220812164016 85 203 1.7 4.3 0.00 0.00 0.00 52 1019.0
20220812162036 84 248 1.7 5.2 0.00 0.00 0.00 52 1019.2
20220812161036 84 203 1.7 4.3 0.00 0.00 0.00 54 1019.4
20220812160016 83 293 1.7 5.2 0.00 0.00 0.00 56 1019.5
20220812155036 82 158 2.6 7.8 0.00 0.00 0.00 59 1019.6
20220812154015 82 158 1.7 5.2 0.00 0.00 0.00 56 1019.6
20220812153015 81 180 1.7 6.1 0.00 0.00 0.00 58 1019.7
20220812152015 80 158 1.7 5.2 0.00 0.00 0.00 60 1019.7